GW6405 Weather Reports


time (UTC)temp
C
wind
direction
speed
KPH
gust
KPH
rain 1hr
cm
rain 24hr
cm
rain mn
cm
humidity
%
barometer
mb
20260906122608 24 73 0.0 0.0 0.00 0.00 0.00 99 1015.3
20260906122104 23 65 0.0 0.0 0.00 0.00 0.00 99 1015.2
20260906121600 23 72 0.0 0.0 0.00 0.00 0.00 99 1015.4
20260906121056 22 61 0.0 0.0 0.00 0.00 0.00 99 1015.5
20260906120551 22 69 0.0 0.0 0.00 0.00 0.00 99 1015.3
20260906120048 21 70 0.0 0.0 0.00 0.00 0.00 99 1015.1
20260906115548 21 70 0.0 0.0 0.00 0.00 0.00 99 1015.1
20260906115043 21 70 0.0 0.0 0.00 0.00 0.00 99 1015.0
20260906114537 21 69 0.0 0.0 0.00 0.00 0.00 99 1015.0
20260906114033 21 67 0.0 0.0 0.00 0.00 0.00 99 1015.0
20260906113532 21 60 0.0 0.0 0.00 0.00 0.00 99 1015.3
20260906113027 21 56 0.0 0.0 0.00 0.00 0.00 99 1015.0
20260906112522 21 58 0.0 0.0 0.00 0.00 0.00 99 1015.0
20260906112019 21 72 0.0 0.0 0.00 0.00 0.00 99 1015.0
20260906111518 21 100 0.0 0.0 0.00 0.00 0.00 99 1015.0
20260906111014 21 91 0.0 0.0 0.00 0.00 0.00 99 1014.9
20260906110508 21 84 0.0 0.0 0.00 0.00 0.00 99 1014.9
20260906110002 21 63 0.0 0.0 0.00 0.00 0.00 99 1014.7
20260906105458 21 108 0.0 0.0 0.00 0.00 0.00 99 1014.8
20260906104953 21 80 0.0 0.0 0.00 0.00 0.00 99 1014.9
20260906104452 21 100 0.0 0.0 0.00 0.00 0.00 99 1014.7
20260906103951 21 106 0.0 0.0 0.00 0.00 0.00 99 1014.9
20260906103449 21 31 0.0 0.0 0.00 0.00 0.00 99 1014.9
20260906102944 21 32 0.0 0.0 0.00 0.00 0.00 99 1014.8
20260906102444 21 33 0.0 0.0 0.00 0.00 0.00 99 1014.9
20260906101939 21 34 0.0 0.0 0.00 0.00 0.00 99 1015.0
20260906101435 21 35 0.0 0.0 0.00 0.00 0.00 99 1014.8
20260906100930 21 42 0.0 0.0 0.00 0.00 0.00 99 1014.6
20260906100429 21 47 0.0 0.0 0.00 0.00 0.00 99 1015.0
20260906095924 21 43 0.0 0.0 0.00 0.00 0.00 99 1014.8
20260906095420 21 57 0.0 0.0 0.00 0.00 0.00 99 1014.6
20260906094920 21 41 0.0 0.0 0.00 0.00 0.00 99 1014.7
20260906094414 21 77 0.0 0.0 0.00 0.00 0.00 99 1014.6
20260906093910 21 73 0.0 0.0 0.00 0.00 0.00 99 1014.6
20260906093407 22 52 0.0 0.0 0.00 0.00 0.00 99 1014.5
20260906092907 22 52 0.0 0.0 0.00 0.00 0.00 99 1014.7
20260906092406 22 52 0.0 0.0 0.00 0.00 0.00 99 1014.6
20260906091902 22 49 0.0 0.0 0.00 0.00 0.00 99 1014.4
20260906091358 22 84 0.0 0.0 0.00 0.00 0.00 99 1014.6
20260906090854 22 104 0.0 0.0 0.00 0.00 0.00 99 1014.7
20260906090353 22 107 0.0 0.0 0.00 0.00 0.00 99 1014.9
20260906085848 22 117 0.0 0.0 0.00 0.00 0.00 99 1014.5
20260906085347 22 54 0.0 0.0 0.00 0.00 0.00 99 1014.7
20260906084842 22 53 0.0 0.0 0.00 0.00 0.00 99 1014.6
20260906084342 22 67 0.0 0.0 0.00 0.00 0.00 99 1014.8
20260906083836 22 67 0.0 0.0 0.00 0.00 0.00 99 1014.4
20260906083333 22 55 0.0 0.0 0.00 0.00 0.00 99 1014.3
20260906082832 22 65 0.0 0.0 0.00 0.00 0.00 99 1014.2
20260906082327 22 65 0.0 0.0 0.00 0.00 0.00 99 1014.3
20260906081823 22 66 0.0 0.0 0.00 0.00 0.00 99 1014.4
20260906081319 22 53 0.0 0.0 0.00 0.00 0.00 99 1014.1
20260906080814 22 35 0.0 0.0 0.00 0.00 0.00 99 1014.4
20260906080311 22 56 0.0 0.0 0.00 0.00 0.00 99 1014.6
20260906075810 22 63 0.0 0.0 0.00 0.00 0.00 99 1014.5
20260906075309 22 63 0.0 0.0 0.00 0.00 0.00 99 1014.3
20260906074805 22 53 0.0 0.0 0.00 0.00 0.00 99 1014.4
20260906074304 22 58 0.0 0.0 0.00 0.00 0.00 99 1014.6
20260906073804 22 57 0.0 0.0 0.00 0.00 0.00 99 1014.4
20260906073259 22 56 0.0 0.0 0.00 0.00 0.00 99 1014.4
20260906072755 22 62 0.0 0.0 0.00 0.00 0.00 99 1014.8
20260906072250 22 44 0.0 0.0 0.00 0.00 0.00 99 1014.7
20260906071747 22 183 0.0 0.0 0.00 0.00 0.00 99 1014.6
20260906071246 22 69 0.0 0.0 0.00 0.00 0.00 99 1014.7
20260906070743 22 47 0.0 0.0 0.00 0.00 0.00 99 1014.5
20260906070238 22 64 0.0 0.0 0.00 0.00 0.00 99 1014.7
20260906065737 22 42 0.0 0.0 0.00 0.00 0.00 99 1014.6
20260906065233 22 47 0.0 0.0 0.00 0.00 0.00 99 1014.7
20260906064728 22 80 0.0 0.0 0.00 0.00 0.00 99 1014.5
20260906064224 22 80 0.0 0.0 0.00 0.00 0.00 99 1014.5
20260906063719 22 58 0.0 0.0 0.00 0.00 0.00 99 1014.6
20260906063215 22 63 0.0 0.0 0.00 0.00 0.00 99 1014.8
20260906062710 22 75 0.0 0.0 0.00 0.00 0.00 99 1014.8
20260906062209 22 50 0.0 0.0 0.00 0.00 0.00 99 1014.7
20260906061705 22 91 0.0 0.0 0.00 0.00 0.00 99 1014.7
20260906061200 22 99 0.0 0.0 0.00 0.00 0.00 99 1014.7
20260906060656 22 29 0.0 0.0 0.00 0.00 0.00 99 1014.8
20260906060153 22 92 0.0 0.0 0.00 0.00 0.00 99 1014.8
20260906055649 22 92 0.0 0.0 0.00 0.00 0.00 99 1014.9
20260906055144 22 92 0.0 0.0 0.00 0.00 0.00 99 1015.0
20260906054639 22 90 0.0 0.0 0.00 0.00 0.00 99 1014.8
20260906054135 22 124 0.0 0.0 0.00 0.00 0.00 99 1014.8
20260906053632 22 102 0.0 0.0 0.00 0.00 0.00 99 1014.6
20260906053131 22 101 0.0 0.0 0.00 0.00 0.00 99 1014.9
20260906052627 22 102 0.0 0.0 0.00 0.00 0.00 99 1014.8
20260906052123 22 101 0.0 0.0 0.00 0.00 0.00 99 1014.9
20260906051619 22 96 0.0 0.0 0.00 0.00 0.00 99 1015.1
20260906051114 22 51 0.0 0.0 0.00 0.00 0.00 99 1014.7
20260906050610 22 97 0.0 0.0 0.00 0.00 0.00 99 1014.6
20260906050105 22 97 0.0 0.0 0.00 0.00 0.00 99 1014.9
20260906045603 22 97 0.0 0.0 0.00 0.00 0.00 99 1014.9
20260906045059 22 98 0.0 0.0 0.00 0.00 0.00 99 1015.0
20260906044555 22 46 0.0 0.0 0.00 0.00 0.00 99 1015.0
20260906044054 22 61 0.0 0.0 0.00 0.00 0.00 99 1015.0
20260906043550 22 61 0.0 0.0 0.00 0.00 0.00 99 1014.8
20260906043047 22 62 0.0 0.0 0.00 0.00 0.00 99 1014.8
20260906042545 22 53 0.0 0.0 0.00 0.00 0.00 99 1014.9
20260906042040 22 56 0.0 0.0 0.00 0.00 0.00 99 1014.9
20260906041536 22 44 0.0 0.0 0.00 0.00 0.00 99 1015.0
20260906041031 22 120 0.0 0.0 0.00 0.00 0.00 99 1015.0
20260906040526 22 121 0.0 0.0 0.00 0.00 0.00 99 1014.8
20260906040022 22 176 0.0 0.0 0.00 0.46 0.46 99 1014.8
20260906035516 22 82 0.0 0.0 0.00 0.46 0.46 99 1014.8
20260906035013 22 70 0.0 0.0 0.00 0.46 0.46 99 1014.9
20260906034512 22 73 0.0 0.0 0.00 0.46 0.46 99 1015.0
20260906034007 22 62 0.0 0.0 0.00 0.46 0.46 99 1015.1
20260906033501 22 41 0.0 0.0 0.00 0.46 0.46 99 1015.2
20260906032957 22 17 0.0 0.0 0.00 0.46 0.46 99 1014.9
20260906032455 22 294 0.0 0.0 0.00 0.46 0.46 99 1015.1
20260906031954 22 57 0.0 0.0 0.00 0.46 0.46 99 1015.2
20260906031450 22 68 0.0 0.0 0.00 0.46 0.46 99 1015.2
20260906030945 22 73 0.0 0.0 0.00 0.46 0.46 99 1015.4
20260906030439 22 65 0.0 0.0 0.00 0.46 0.46 99 1015.2
20260906025934 22 35 0.0 0.0 0.00 0.46 0.46 99 1015.8
20260906025433 22 109 0.0 0.0 0.00 0.46 0.46 99 1015.9
20260906024932 22 54 0.0 0.0 0.00 0.46 0.46 99 1015.7
20260906024433 22 27 0.0 0.0 0.00 0.46 0.46 99 1015.9
20260906023932 22 189 0.0 0.0 0.00 0.46 0.46 99 1016.1
20260906023430 22 255 0.0 0.0 0.00 0.46 0.46 99 1015.5
20260906022929 22 299 0.0 0.0 0.00 0.46 0.46 99 1016.1
20260906022425 22 249 0.0 0.0 0.00 0.46 0.46 99 1016.1
20260906021920 22 66 0.0 0.0 0.00 0.46 0.46 99 1016.0
20260906021415 22 227 0.0 0.0 0.00 0.46 0.46 99 1016.1
20260906020914 22 230 0.0 0.0 0.00 0.46 0.46 99 1015.9
20260906020409 22 91 0.0 0.0 0.00 0.46 0.46 99 1015.7
20260906015903 22 162 0.0 0.0 0.00 0.46 0.46 99 1015.7
20260906015403 22 120 0.0 0.0 0.00 0.46 0.46 99 1016.2
20260906014903 23 136 0.0 0.0 0.00 0.46 0.46 99 1015.9
20260906014403 22 178 0.0 0.0 0.00 0.46 0.46 99 1016.0
20260906013859 23 121 0.0 0.0 0.00 0.46 0.46 99 1015.8
20260906013354 22 65 0.0 0.0 0.00 0.46 0.46 99 1015.9
20260906012849 22 108 0.0 0.0 0.00 0.46 0.46 99 1015.6
20260906012344 23 109 0.0 0.0 0.00 0.46 0.46 99 1015.6
20260906011844 23 84 0.0 0.0 0.00 0.46 0.46 99 1015.3
20260906011339 22 104 0.0 0.0 0.00 0.46 0.46 99 1015.4
20260906010835 22 75 0.0 0.0 0.00 0.46 0.46 99 1015.7
20260906010331 23 80 0.0 0.0 0.00 0.46 0.46 99 1015.5
20260906005826 22 234 0.0 0.0 0.00 0.46 0.46 99 1015.1
20260906005325 22 195 0.0 0.0 0.00 0.46 0.46 99 1014.8
20260906004824 23 66 0.0 0.0 0.00 0.46 0.46 99 1014.9
20260906004324 23 242 0.0 0.0 0.00 0.46 0.46 99 1014.7
20260906003819 23 327 0.0 0.0 0.00 0.46 0.46 98 1014.6
20260906003315 23 192 0.0 0.0 0.00 0.46 0.46 98 1014.2
20260906002810 23 7 0.0 0.0 0.00 0.46 0.46 97 1014.4
20260906002309 23 337 0.0 0.0 0.00 0.46 0.46 97 1014.3
20260906001805 23 219 0.0 8.0 0.00 0.46 0.46 96 1014.6
20260906001300 23 112 0.0 0.0 2.69 0.46 0.46 95 1014.8
20260906000756 24 69 0.0 4.8 2.16 0.36 0.36 90 1014.8
20260906000256 25 57 0.0 4.8 0.00 0.00 0.00 85 1015.0
20260905235750 25 38 0.0 4.8 0.00 0.00 0.00 83 1015.0
20260905235250 26 71 4.8 11.3 0.00 0.00 0.00 82 1015.3
20260905234746 26 36 0.0 11.3 0.00 0.00 0.00 80 1015.5
20260905234241 28 331 1.6 16.1 0.00 0.00 0.00 74 1015.1
20260905233736 30 96 0.0 11.3 0.00 0.00 0.00 69 1014.8
20260905233235 30 80 0.0 4.8 0.00 0.00 0.00 73 1014.4
20260905232730 31 163 0.0 0.0 0.00 0.00 0.00 74 1013.6
20260905232226 31 218 0.0 0.0 0.00 0.00 0.00 73 1013.5
20260905231721 31 204 0.0 0.0 0.00 0.00 0.00 74 1013.5
20260905231217 31 189 0.0 0.0 0.00 0.00 0.00 73 1013.6
20260905230713 31 218 0.0 0.0 0.00 0.00 0.00 74 1013.8
20260905230210 31 196 0.0 0.0 0.00 0.00 0.00 73 1013.6
20260905225710 31 167 0.0 0.0 0.00 0.00 0.00 74 1013.6
20260905225206 31 209 0.0 0.0 0.00 0.00 0.00 74 1013.6
20260905224705 31 190 0.0 0.0 0.00 0.00 0.00 73 1013.7
20260905224200 31 158 0.0 4.8 0.00 0.00 0.00 72 1013.8
20260905223656 32 203 0.0 4.8 0.00 0.00 0.00 73 1013.5
20260905223153 32 203 0.0 0.0 0.00 0.00 0.00 73 1013.6
20260905222648 32 216 0.0 4.8 0.00 0.00 0.00 72 1013.7
20260905222142 32 169 0.0 4.8 0.00 0.00 0.00 72 1013.5
20260905221638 32 236 0.0 0.0 0.00 0.00 0.00 71 1013.4
20260905221135 32 202 0.0 0.0 0.00 0.00 0.00 71 1013.5
20260905220630 32 231 0.0 0.0 0.00 0.00 0.00 72 1013.5
20260905220126 32 177 0.0 8.0 0.00 0.00 0.00 71 1013.4
20260905215626 32 216 0.0 4.8 0.00 0.00 0.00 69 1013.4
20260905215121 32 145 0.0 0.0 0.00 0.00 0.00 69 1013.2
20260905214618 33 174 0.0 0.0 0.00 0.00 0.00 67 1013.2
20260905214117 33 159 0.0 8.0 0.00 0.00 0.00 67 1013.1
20260905213613 33 199 0.0 4.8 0.00 0.00 0.00 66 1013.3
20260905213108 33 258 0.0 8.0 0.00 0.00 0.00 68 1013.2
20260905212609 33 212 0.0 8.0 0.00 0.00 0.00 70 1013.1
20260905212108 33 214 3.2 11.3 0.00 0.00 0.00 69 1013.3
20260905211603 33 214 0.0 4.8 0.00 0.00 0.00 68 1013.2
20260905211059 33 190 4.8 8.0 0.00 0.00 0.00 66 1013.2
20260905210554 34 218 0.0 0.0 0.00 0.00 0.00 61 1013.3
20260905210049 35 195 0.0 0.0 0.00 0.00 0.00 55 1013.1
20260905205549 35 156 0.0 0.0 0.00 0.00 0.00 55 1012.9
20260905205048 35 135 0.0 0.0 0.00 0.00 0.00 53 1013.2
20260905204543 35 179 0.0 0.0 0.00 0.00 0.00 54 1013.5
20260905204038 34 112 0.0 0.0 0.00 0.00 0.00 56 1013.3
20260905203538 34 67 0.0 0.0 0.00 0.00 0.00 56 1013.6
20260905203033 33 170 0.0 0.0 0.00 0.00 0.00 56 1013.6
20260905202528 34 168 0.0 0.0 0.00 0.00 0.00 56 1013.6
20260905202024 35 151 0.0 0.0 0.00 0.00 0.00 53 1013.5
20260905201519 35 174 0.0 0.0 0.00 0.00 0.00 54 1013.7
20260905201018 35 159 0.0 0.0 0.00 0.00 0.00 52 1013.7
20260905200514 35 159 0.0 0.0 0.00 0.00 0.00 53 1014.2
20260905200009 35 149 0.0 0.0 0.00 0.00 0.00 52 1014.2
20260905195508 36 148 0.0 0.0 0.00 0.00 0.00 52 1014.4
20260905195004 36 148 0.0 0.0 0.00 0.00 0.00 54 1014.3
20260905194458 36 145 0.0 0.0 0.00 0.00 0.00 52 1014.3
20260905193958 36 127 0.0 0.0 0.00 0.00 0.00 52 1014.4
20260905193458 36 126 0.0 0.0 0.00 0.00 0.00 51 1014.5
20260905192954 36 26 0.0 0.0 0.00 0.00 0.00 50 1014.5
20260905192449 36 126 0.0 0.0 0.00 0.00 0.00 51 1014.6
20260905191945 36 183 0.0 0.0 0.00 0.00 0.00 50 1014.6
20260905191443 36 156 0.0 0.0 0.00 0.00 0.00 51 1014.6
20260905190943 36 145 0.0 0.0 0.00 0.00 0.00 52 1014.6
20260905190441 35 137 0.0 0.0 0.00 0.00 0.00 52 1014.6
20260905185940 36 203 0.0 0.0 0.00 0.00 0.00 51 1014.8
20260905185435 36 162 0.0 0.0 0.00 0.00 0.00 50 1014.8
20260905184933 36 130 0.0 0.0 0.00 0.00 0.00 49 1014.8
20260905184428 36 167 0.0 0.0 0.00 0.00 0.00 53 1014.8
20260905183927 36 181 0.0 0.0 0.00 0.00 0.00 53 1014.8
20260905183422 35 221 0.0 0.0 0.00 0.00 0.00 52 1015.1
20260905182917 36 42 0.0 0.0 0.00 0.00 0.00 49 1015.1
20260905182416 36 137 0.0 0.0 0.00 0.00 0.00 51 1015.0
20260905181912 36 180 0.0 0.0 0.00 0.00 0.00 52 1015.2
20260905181412 37 142 0.0 0.0 0.00 0.00 0.00 50 1015.2
20260905180911 37 149 0.0 0.0 0.00 0.00 0.00 49 1015.1
20260905180406 36 128 0.0 0.0 0.00 0.00 0.00 49 1015.1
20260905175901 37 258 0.0 8.0 0.00 0.00 0.00 49 1015.4
20260905175401 37 155 0.0 4.8 0.00 0.00 0.00 48 1015.5
20260905174901 37 100 0.0 0.0 0.00 0.00 0.00 47 1015.4
20260905174357 37 13 0.0 11.3 0.00 0.00 0.00 47 1015.3
20260905173852 37 73 0.0 0.0 0.00 0.00 0.00 49 1015.5
20260905173348 37 126 0.0 0.0 0.00 0.00 0.00 48 1015.6
20260905172843 37 87 0.0 0.0 0.00 0.00 0.00 50 1015.7
20260905172341 36 174 0.0 0.0 0.00 0.00 0.00 52 1015.8
20260905171837 35 108 0.0 4.8 0.00 0.00 0.00 53 1016.0
20260905171334 35 105 0.0 8.0 0.00 0.00 0.00 53 1015.8
20260905170830 35 31 0.0 0.0 0.00 0.00 0.00 52 1016.1
20260905170326 36 182 0.0 0.0 0.00 0.00 0.00 55 1015.9
20260905165825 35 260 0.0 0.0 0.00 0.00 0.00 53 1016.3
20260905165321 36 211 0.0 0.0 0.00 0.00 0.00 52 1016.3
20260905164820 36 77 0.0 0.0 0.00 0.00 0.00 53 1016.2
20260905164315 36 298 0.0 4.8 0.00 0.00 0.00 52 1016.2
20260905163811 36 140 0.0 0.0 0.00 0.00 0.00 54 1016.4
20260905163308 36 145 0.0 0.0 0.00 0.00 0.00 54 1016.5
20260905162803 36 188 0.0 0.0 0.00 0.00 0.00 53 1016.4
20260905162305 36 62 0.0 0.0 0.00 0.00 0.00 55 1016.7
20260905161757 35 313 0.0 0.0 0.00 0.00 0.00 56 1016.6
20260905161256 35 65 0.0 8.0 0.00 0.00 0.00 53 1016.7
20260905160755 36 150 0.0 8.0 0.00 0.00 0.00 54 1016.8
20260905160255 36 177 0.0 0.0 0.00 0.00 0.00 53 1016.8
20260905155750 36 125 0.0 0.0 0.00 0.00 0.00 55 1016.7
20260905155248 36 174 0.0 8.0 0.00 0.00 0.00 54 1016.8
20260905154743 36 123 0.0 0.0 0.00 0.00 0.00 52 1016.7
20260905154239 36 145 0.0 0.0 0.00 0.00 0.00 53 1016.6
20260905153734 35 159 0.0 0.0 0.00 0.00 0.00 53 1016.9
20260905153230 35 16 0.0 4.8 0.00 0.00 0.00 53 1016.9
20260905152725 35 241 0.0 0.0 0.00 0.00 0.00 55 1017.0
20260905152225 36 140 0.0 0.0 0.00 0.00 0.00 53 1016.9
20260905151724 35 96 0.0 0.0 0.00 0.00 0.00 54 1016.9
20260905151221 35 74 0.0 0.0 0.00 0.00 0.00 56 1016.9
20260905150715 35 54 0.0 0.0 0.00 0.00 0.00 54 1016.9
20260905150214 35 182 0.0 0.0 0.00 0.00 0.00 55 1017.0
20260905145712 35 107 0.0 0.0 0.00 0.00 0.00 56 1016.9
20260905145207 35 134 0.0 0.0 0.00 0.00 0.00 59 1017.0
20260905144706 35 156 0.0 0.0 0.00 0.00 0.00 57 1017.2
20260905144206 35 217 0.0 0.0 0.00 0.00 0.00 57 1017.2
20260905143706 34 132 0.0 0.0 0.00 0.00 0.00 59 1017.2
20260905143206 34 115 0.0 0.0 0.00 0.00 0.00 60 1017.0
20260905142704 34 90 0.0 0.0 0.00 0.00 0.00 59 1017.3
20260905142159 32 156 0.0 0.0 0.00 0.00 0.00 67 1017.0
20260905141654 33 55 0.0 4.8 0.00 0.00 0.00 61 1017.2
20260905141150 34 138 0.0 0.0 0.00 0.00 0.00 63 1017.3
20260905140645 33 129 0.0 0.0 0.00 0.00 0.00 63 1017.2
20260905140144 34 152 0.0 0.0 0.00 0.00 0.00 62 1017.2
20260905135640 33 134 0.0 0.0 0.00 0.00 0.00 64 1017.5
20260905135135 33 151 0.0 0.0 0.00 0.00 0.00 65 1017.3
20260905134630 32 174 0.0 0.0 0.00 0.00 0.00 67 1017.5
20260905134128 33 132 0.0 0.0 0.00 0.00 0.00 64 1017.4
20260905133624 33 139 0.0 0.0 0.00 0.00 0.00 65 1017.4
20260905133124 33 140 0.0 0.0 0.00 0.00 0.00 68 1017.5
20260905132624 32 130 0.0 0.0 0.00 0.00 0.00 70 1017.3
20260905132119 31 127 0.0 0.0 0.00 0.00 0.00 72 1017.4
20260905131614 31 197 0.0 0.0 0.00 0.00 0.00 72 1017.6
20260905131109 30 141 0.0 0.0 0.00 0.00 0.00 77 1017.5
20260905130609 28 185 0.0 0.0 0.00 0.00 0.00 78 1017.5
20260905125603 30 115 0.0 0.0 0.00 0.00 0.00 79 1017.4
20260905125058 28 140 0.0 0.0 0.00 0.00 0.00 81 1017.4
20260905124555 28 136 0.0 0.0 0.00 0.00 0.00 83 1017.4
20260905124051 27 101 0.0 0.0 0.00 0.00 0.00 83 1017.4
20260905123546 27 135 0.0 0.0 0.00 0.00 0.00 87 1017.4
20260905123043 26 132 0.0 0.0 0.00 0.00 0.00 90 1017.7